This is the latest recevied weather packets stored in our database for station/object IZ2XCK-13. If no packets are shown the sender has not sent any weather packets the latest 10 day(s).
| Time | Temp. | Humidity | Pressure | Rain* | Wind** | Luminosity | Snow |
|---|---|---|---|---|---|---|---|
| 1777842288 | 17.22° C | 39% | 1019.4 hPa | - | - | - | - |
| 1777841087 | 17.22° C | 39% | 1019.2 hPa | - | - | - | - |
| 1777839887 | 17.78° C | 38% | 1019.4 hPa | - | - | - | - |
| 1777838687 | 17.22° C | 39% | 1019.3 hPa | - | - | - | - |
| 1777837487 | 18.33° C | 36% | 1019.2 hPa | - | - | - | - |
| 1777836349 | 18.33° C | 37% | 1019.1 hPa | - | - | - | - |
| 1777835149 | 18.33° C | 37% | 1018.8 hPa | - | - | - | - |
| 1777833948 | 18.89° C | 35% | 1018.5 hPa | - | - | - | - |
| 1777832748 | 19.44° C | 33% | 1018.4 hPa | - | - | - | - |
| 1777831548 | 19.44° C | 33% | 1018.2 hPa | - | - | - | - |
| 1777830347 | 20° C | 31% | 1018.2 hPa | - | - | - | - |
| 1777829147 | 20.56° C | 30% | 1018.1 hPa | - | - | - | - |
| 1777827947 | 20.56° C | 29% | 1018.2 hPa | - | - | - | - |
| 1777826746 | 21.11° C | 28% | 1018.2 hPa | - | - | - | - |
| 1777825546 | 21.67° C | 27% | 1018.3 hPa | - | - | - | - |
| 1777824346 | 21.67° C | 27% | 1018.2 hPa | - | - | - | - |
| 1777823145 | 21.67° C | 26% | 1018.2 hPa | - | - | - | - |
| 1777821945 | 22.22° C | 29% | 1018.3 hPa | - | - | - | - |
| 1777820745 | 23.33° C | 29% | 1018.3 hPa | - | - | - | - |
| 1777819544 | 23.89° C | 28% | 1018.3 hPa | - | - | - | - |
| 1777818344 | 24.44° C | 27% | 1018.4 hPa | - | - | - | - |
| 1777817144 | 25° C | 28% | 1018.6 hPa | - | - | - | - |
| 1777815943 | 25° C | 28% | 1018.4 hPa | - | - | - | - |
| 1777814743 | 23.89° C | 29% | 1018.6 hPa | - | - | - | - |
| 1777813543 | 23.33° C | 30% | 1018.7 hPa | - | - | - | - |
* Rain since midnight (hover to see other rain measurements)
** Current wind speed in m/s (hover to see current wind gust speed)